Date String (YYYY-MM-DD hh:mm:ss) UTC,Instrument flags,Ambient pressure (hPa),Sample flow (lpm),Bypass flow (lpm),Sample temperature (°C),Ambient temperature (°C),ASC tube jacket temperature (°C),LED temperature (°C),Box temperature (°C),Sample RH (%),Span deviation,Mass concentration (μg/m³),Mass concentration (μg/m³),Mass concentration (μg/m³)
DateTimeUTC,F1_M11,P_M11,Q1_M11,Q2_M11,T1_M11,T2_M11,T3_M11,T4_M11,T5_M11,U1_M11,ZSPAN_M11,X2_M11,X0_M11,X1_M11
2023-05-22 19:00:00,,0830.6,5.01,0.00,29.7,25.1,00.0,37.8,31.0,23.0,0003.6,0020.77,0032.84,0019.51
2023-05-22 19:01:00,,0830.7,5.01,0.00,29.6,25.3,00.0,37.8,30.8,22.9,0003.6,0020.74,0033.29,0019.44
2023-05-22 19:02:00,,0830.5,4.99,0.00,29.5,25.7,00.0,37.8,30.8,23.0,0003.6,0020.66,0033.49,0019.39
2023-05-22 19:03:00,,0830.4,4.99,0.00,29.4,26.1,00.0,37.8,30.9,23.3,0003.5,0020.61,0032.92,0019.35
2023-05-22 19:04:00,,0830.4,5.00,0.00,29.4,26.4,00.0,37.8,30.9,23.9,0003.4,0020.52,0032.40,0019.31
2023-05-22 19:05:00,,0830.4,5.00,0.00,29.4,26.8,00.0,37.8,31.0,22.8,0003.4,0020.50,0032.27,0019.32
2023-05-22 19:06:00,,0830.4,5.01,0.00,29.4,27.0,00.0,37.8,31.0,22.8,0003.5,0020.54,0032.44,0019.37
2023-05-22 19:07:00,,0830.4,4.99,0.00,29.4,27.3,00.0,37.8,31.0,23.5,0003.5,0020.57,0032.80,0019.40
2023-05-22 19:08:00,,0830.4,5.01,0.00,29.4,27.5,00.0,37.8,31.1,23.7,0003.6,0020.66,0033.54,0019.47
2023-05-22 19:09:00,,0830.4,5.00,0.00,29.4,27.6,00.0,37.8,31.1,20.5,0003.6,0020.75,0032.24,0019.53
2023-05-22 19:10:00,,0830.4,5.01,0.00,29.4,27.8,00.0,37.8,31.1,20.8,0003.5,0020.84,0031.34,0019.64
2023-05-22 19:11:00,,0830.4,4.99,0.00,29.5,27.9,00.0,37.8,31.2,21.3,0003.4,0021.00,0031.06,0019.79
2023-05-22 19:12:00,,0830.4,4.99,0.00,29.5,28.0,00.0,37.8,31.2,21.9,0003.3,0021.21,0030.68,0019.99
2023-05-22 19:13:00,,0830.4,5.01,0.00,29.5,28.1,00.0,37.8,31.2,22.3,0003.4,0021.37,0030.18,0020.14
2023-05-22 19:14:00,,0830.4,5.01,0.00,29.6,28.2,00.0,37.8,31.3,22.8,0003.5,0021.51,0030.36,0020.27
2023-05-22 19:15:00,,0830.4,5.00,0.00,29.6,28.2,00.0,37.8,31.3,22.3,0003.5,0021.67,0030.44,0020.44
2023-05-22 19:16:00,,0830.3,4.98,0.00,29.6,28.3,00.0,37.9,31.3,22.3,0003.4,0021.93,0030.80,0020.66
2023-05-22 19:17:00,,0830.3,5.00,0.00,29.6,28.3,00.0,37.9,31.4,22.5,0003.4,0022.12,0031.14,0020.83
2023-05-22 19:18:00,,0830.3,5.01,0.00,29.7,28.4,00.0,37.9,31.4,22.3,0003.5,0022.32,0031.24,0021.02
2023-05-22 19:19:00,,0830.3,5.00,0.00,29.7,28.4,00.0,37.9,31.4,22.5,0003.5,0022.46,0031.53,0021.15
2023-05-22 19:20:00,,0830.3,4.98,0.00,29.7,28.0,00.0,37.9,31.4,23.5,0003.5,0022.57,0031.76,0021.27
2023-05-22 19:21:00,,0830.2,5.00,0.00,29.7,26.4,00.0,37.9,31.2,23.0,0003.5,0022.64,0031.85,0021.32
2023-05-22 19:22:00,,0830.2,5.00,0.00,29.6,26.0,00.0,37.8,31.1,22.9,0003.4,0022.74,0032.24,0021.38
2023-05-22 19:23:00,,0830.3,5.01,0.00,29.6,26.1,00.0,37.8,31.0,23.2,0003.3,0022.84,0033.15,0021.47
2023-05-22 19:24:00,,0830.3,5.00,0.00,29.5,26.4,00.0,37.8,31.0,22.6,0003.2,0023.02,0033.83,0021.67
2023-05-22 19:25:00,,0830.3,4.99,0.00,29.5,26.7,00.0,37.8,31.0,23.2,0003.2,0023.16,0033.88,0021.80
2023-05-22 19:26:00,,0830.3,5.00,0.00,29.5,27.0,00.0,37.8,31.1,23.0,0003.3,0023.31,0034.06,0021.93
2023-05-22 19:27:00,,0830.2,5.00,0.00,29.5,27.2,00.0,37.8,31.1,22.9,0003.4,0023.39,0034.23,0022.02
2023-05-22 19:28:00,,0830.2,5.00,0.00,29.5,27.5,00.0,37.8,31.1,22.2,0003.4,0023.52,0035.58,0022.16
2023-05-22 19:29:00,,0830.3,5.01,0.00,29.5,27.6,00.0,37.8,31.2,21.8,0003.3,0023.72,0035.57,0022.34
2023-05-22 19:30:00,,0830.3,5.00,0.00,29.5,27.8,00.0,37.8,31.2,22.3,0003.2,0023.87,0034.97,0022.52
2023-05-22 19:31:00,,0830.2,5.01,0.00,29.5,27.9,00.0,37.8,31.2,22.4,0003.2,0024.04,0035.19,0022.69
2023-05-22 19:32:00,,0830.3,4.99,0.00,29.6,28.1,00.0,37.9,31.3,22.3,0003.2,0024.23,0035.33,0022.88
2023-05-22 19:33:00,,0830.3,5.00,0.00,29.6,28.2,00.0,37.9,31.3,22.0,0003.5,0024.35,0035.31,0023.01
2023-05-22 19:34:00,,0830.2,5.00,0.00,29.6,28.3,00.0,37.9,31.3,21.7,0003.5,0024.46,0034.90,0023.11
2023-05-22 19:35:00,,0830.2,4.99,0.00,29.6,28.3,00.0,37.9,31.4,22.0,0003.6,0024.43,0034.18,0023.07
2023-05-22 19:36:00,,0830.3,5.00,0.00,29.7,28.4,00.0,37.9,31.4,21.6,0003.6,0024.43,0034.80,0023.06
2023-05-22 19:37:00,,0830.2,5.00,0.00,29.7,28.5,00.0,37.9,31.4,21.1,0003.7,0024.57,0035.17,0023.23
2023-05-22 19:38:00,,0830.2,5.00,0.00,29.7,28.2,00.0,38.0,31.4,21.4,0003.7,0024.77,0035.92,0023.42
2023-05-22 19:39:00,,0830.1,4.99,0.00,29.7,26.6,00.0,37.9,31.2,21.8,0003.7,0024.86,0034.92,0023.53
2023-05-22 19:40:00,,0830.1,5.01,0.00,29.7,26.0,00.0,37.8,31.1,22.2,0003.8,0024.86,0034.75,0023.56
2023-05-22 19:41:00,,0830.1,5.01,0.00,29.6,26.1,00.0,37.8,31.0,22.8,0003.8,0024.85,0034.98,0023.57
2023-05-22 19:42:00,,0830.1,5.00,0.00,29.5,26.4,00.0,37.8,31.0,21.8,0003.7,0024.90,0035.19,0023.62
2023-05-22 19:43:00,,0830.1,5.00,0.00,29.5,26.7,00.0,37.8,31.0,21.7,0003.7,0025.04,0036.27,0023.69
2023-05-22 19:44:00,,0830.1,5.00,0.00,29.5,27.0,00.0,37.8,31.1,21.7,0003.6,0025.14,0036.44,0023.80
2023-05-22 19:45:00,,0830.1,5.01,0.00,29.5,27.2,00.0,37.8,31.1,21.3,0003.6,0025.29,0036.58,0023.93
2023-05-22 19:46:00,,0830.1,5.00,0.00,29.5,27.5,00.0,37.8,31.2,22.3,0003.6,0025.35,0036.59,0024.02
2023-05-22 19:47:00,,0830.0,4.99,0.00,29.5,27.7,00.0,37.8,31.2,21.8,0003.6,0025.52,0036.41,0024.18
2023-05-22 19:48:00,,0830.0,5.00,0.00,29.6,27.8,00.0,37.9,31.3,21.3,0003.5,0025.60,0037.18,0024.24
2023-05-22 19:49:00,,0830.0,5.00,0.00,29.6,28.0,00.0,37.9,31.3,21.6,0003.5,0025.62,0037.02,0024.25
2023-05-22 19:50:00,,0830.1,5.00,0.00,29.6,28.1,00.0,37.9,31.3,22.1,0003.5,0025.69,0037.07,0024.26
2023-05-22 19:51:00,,0830.0,5.00,0.00,29.6,28.2,00.0,37.9,31.4,21.6,0003.5,0025.80,0037.69,0024.32
2023-05-22 19:52:00,,0830.0,5.00,0.00,29.7,28.3,00.0,37.9,31.4,21.7,0003.5,0025.90,0037.94,0024.41
2023-05-22 19:53:00,,0830.0,5.00,0.00,29.7,28.4,00.0,37.9,31.4,21.5,0003.6,0026.07,0038.45,0024.55
2023-05-22 19:54:00,,0830.1,4.99,0.00,29.7,28.1,00.0,37.9,31.4,21.3,0003.5,0026.18,0038.28,0024.72
2023-05-22 19:55:00,,0830.0,4.99,0.00,29.7,26.6,00.0,37.9,31.2,21.2,0003.5,0026.30,0038.52,0024.82
2023-05-22 19:56:00,,0830.1,5.01,0.00,29.6,26.0,00.0,37.8,31.1,21.6,0003.5,0026.39,0038.84,0024.93
2023-05-22 19:57:00,,0830.0,5.01,0.00,29.6,26.1,00.0,37.8,31.0,21.0,0003.5,0026.61,0039.11,0025.14
2023-05-22 19:58:00,,0830.0,5.00,0.00,29.5,26.4,00.0,37.8,31.0,21.1,0003.4,0026.84,0039.97,0025.36
2023-05-22 19:59:00,,0830.0,4.99,0.00,29.5,26.7,00.0,37.8,31.0,21.7,0003.5,0026.98,0039.80,0025.49
